Вернуться в каталог

STARLINK-11735

АктивенСвязьVLEO
NORAD 64130·PAYLOAD·🇺🇸 United States

Запущен May 24, 2025 с Cape Canaveral Space Force Station

Loading…

Ближайшие Пролёты (ближайшие 24 часа)

TLE

СвежийSource: CelesTrak SupGP

Эпоха: Sep 14, 2026, 21:28 UTC

1 64130C 25111H   26257.89493056  .00011673  00000+0  90685-4 0  2576
2 64130  43.0004 273.3982 0001647 259.2472 185.2144 15.70826275    19

Отслеживайте STARLINK-11735 в реальном времени с AllMySat

Download on the App Store